User: anonymous   Login
Location: Caltech
(34.1382°N, 118.1253°W)
Time: 15:59:41
(UTC-08:00)
Language:

Cosmos 2219 Rocket - Orbit

View from above orbital plane
View from above orbital plane
View from above satellite
View from above satellite

Ground track
Ground track

The orbit data is extracted from the following two-line orbital elements,

1 22220U 92076B   17326.59250608 +.00000140 +00000-0 +94344-4 0  9999
2 22220 071.0006 085.8115 0011872 021.7625 059.5583 14.16425126292879
Epoch (UTC): 22 November 2017 14:13:12
Eccentricity: 0.0011872
inclination: 71.0006°
perigee height: 829 km
apogee height: 846 km
right ascension of ascending node: 85.8115°
argument of perigee: 21.7625°
revolutions per day: 14.16425126
mean anomaly at epoch: 59.5583°
orbit number at epoch: 29287

The dashed part of the orbit path shows where the satellite is in the earth's shadow,  

DLR